This is the latest recevied weather packets stored in our database for station/object 9W2CHF-3. If no packets are shown the sender has not sent any weather packets the latest 10 day(s).
| Time | Temp. | Humidity | Pressure | Rain* | Wind** | Luminosity | Snow |
|---|---|---|---|---|---|---|---|
| 1777852018 | 28.33° C | 100% | 1011 hPa | - | - | - | - |
| 1777850817 | 27.78° C | 100% | 1010.7 hPa | - | - | - | - |
| 1777849617 | 27.22° C | 100% | 1010.6 hPa | - | - | - | - |
| 1777848417 | 27.78° C | 100% | 1010.5 hPa | - | - | - | - |
| 1777847217 | 27.22° C | 100% | 1010.2 hPa | - | - | - | - |
| 1777846017 | 27.22° C | 100% | 1010.2 hPa | - | - | - | - |
| 1777844817 | 27.78° C | 100% | 1010 hPa | - | - | - | - |
| 1777843617 | 27.22° C | 100% | 1010.1 hPa | - | - | - | - |
| 1777842417 | 27.78° C | 100% | 1010.1 hPa | - | - | - | - |
| 1777841217 | 27.78° C | 100% | 1010 hPa | - | - | - | - |
| 1777840017 | 27.78° C | 100% | 1010.1 hPa | - | - | - | - |
| 1777838817 | 27.78° C | 100% | 1009.9 hPa | - | - | - | - |
| 1777837617 | 28.89° C | 100% | 1010 hPa | - | - | - | - |
| 1777836417 | 28.33° C | 100% | 1010 hPa | - | - | - | - |
| 1777835217 | 28.89° C | 99% | 1010.2 hPa | - | - | - | - |
| 1777834017 | 27.78° C | 100% | 1010.2 hPa | - | - | - | - |
| 1777832823 | 28.33° C | 100% | 1010.4 hPa | - | - | - | - |
| 1777831623 | 28.33° C | 100% | 1010.6 hPa | - | - | - | - |
| 1777830423 | 28.89° C | 97% | 1010.7 hPa | - | - | - | - |
| 1777829223 | 28.33° C | 100% | 1010.6 hPa | - | - | - | - |
| 1777828023 | 29.44° C | 98% | 1010.8 hPa | - | - | - | - |
| 1777826823 | 29.44° C | 96% | 1010.9 hPa | - | - | - | - |
| 1777825622 | 28.89° C | 96% | 1010.8 hPa | - | - | - | - |
| 1777824422 | 30.56° C | 89% | 1010.9 hPa | - | - | - | - |
| 1777823222 | 30.56° C | 88% | 1011 hPa | - | - | - | - |
* Rain since midnight (hover to see other rain measurements)
** Current wind speed in m/s (hover to see current wind gust speed)